Regional Weather Roundup
Issued by NWS

Home | Current Version | Previous Version | Graphics & Text | Print | Product List | Glossary On
Versions: 1 2 3 4 5 6 7 8 9 10 11 12 13 14 15 16 17 18 19 20 21 22 23 24 25 26 27 28 29
000
ASUS45 KBOI 291710
RWRID
WEATHER ROUNDUP FOR IDAHO
NATIONAL WEATHER SERVICE BOISE ID
1100 AM MDT WED OCT 29 2014

NOTE: "FAIR" INDICATES FEW OR NO CLOUDS BELOW 12000 FEET
WITH NO SIGNIFICANT WEATHER AND/OR OBSTRUCTIONS TO VISIBILITY

IDZ012-014-291800-
SOUTHWEST IDAHO


CITY           SKY/WX    TMP DP  RH WIND       PRES   REMARKS
BOISE          SUNNY     53  37  54 CALM      30.22R
CALDWELL       SUNNY     48  34  57 MISG      30.25S
MOUNTAIN HOME  MOSUNNY   50  27  40 SE7       30.24R
$$

IDZ016-017-291800-
SOUTHCENTRAL IDAHO


CITY           SKY/WX    TMP DP  RH WIND       PRES   REMARKS
BURLEY         MOSUNNY   57  29  34 SW12      30.23R
JEROME         MOSUNNY   54  30  40 CALM      30.23S
TWIN FALLS     MOSUNNY   61  31  32 SW10      30.22S
$$

IDZ019>023-291800-
SOUTHEAST IDAHO


CITY           SKY/WX    TMP DP  RH WIND       PRES   REMARKS
IDAHO FALLS    PTSUNNY   44  25  47 N5        30.27R
POCATELLO      PTSUNNY   58  26  29 S10       30.25R
REXBURG        PTSUNNY   44  21  40 CALM      30.26R
$$

IDZ006-010-011-018-031-032-291800-
CENTRAL IDAHO MOUNTAINS


CITY           SKY/WX    TMP DP  RH WIND       PRES   REMARKS
MCCALL         CLOUDY    43  38  82 CALM      30.22R
HAILEY         MOSUNNY   45  32  61 NW7       30.27S
STANLEY          N/A     42  38  85 VRB3      30.27R
SALMON         SUNNY     43  34  70 CALM      30.22R
CHALLIS        PTSUNNY   43  33  68 N5        30.22S
$$

IDZ002-004-006-007-026-291800-
NORTHERN IDAHO


CITY           SKY/WX    TMP DP  RH WIND       PRES   REMARKS
LEWISTON       PTSUNNY   51  47  86 NE3       30.17R
LOWELL           N/A     48  46  93 CALM      30.23R
COEUR D`ALENE  CLOUDY    50  46  87 CALM      30.13R
MULLAN PASS    FOG       36  36 100 MISG      30.14R VSB<1/4
$$



USA.gov is the U.S. government's official web portal to all federal, state and local government web resources and services.